Time,TemperatureF,DewpointF,PressureIn,WindDirection,WindDirectionDegrees,WindSpeedMPH,WindSpeedGustMPH,Humidity,HourlyPrecipIn,Conditions,Clouds,dailyrainin,SoftwareType,DateUTC
2014-09-22 00:01:00,52.0,47.0,30.07,NW,315,8.0,9.0,83,0.00,,---,0.00,VWS V14.01,2014-09-22 04:01:00,
2014-09-22 00:06:00,52.0,47.0,30.07,NNW,337,5.0,10.0,83,0.00,,---,0.00,VWS V14.01,2014-09-22 04:06:00,
2014-09-22 00:11:00,52.0,47.0,30.07,NW,315,7.0,9.0,83,0.00,,---,0.00,VWS V14.01,2014-09-22 04:11:00,
2014-09-22 00:17:00,52.0,47.3,30.07,NW,315,7.0,10.0,84,0.00,,---,0.00,VWS V14.01,2014-09-22 04:17:00,
2014-09-22 00:22:00,52.0,47.6,30.08,WNW,292,8.0,10.0,85,0.00,,---,0.00,VWS V14.01,2014-09-22 04:22:00,
2014-09-22 00:25:00,52.0,47.6,30.08,WNW,292,7.0,10.0,85,0.00,,---,0.00,VWS V14.01,2014-09-22 04:25:00,
2014-09-22 00:30:00,52.0,47.6,30.08,NNW,337,7.0,8.0,85,0.00,,---,0.00,VWS V14.01,2014-09-22 04:30:00,
2014-09-22 00:35:00,51.0,46.7,30.08,NW,315,7.0,12.0,85,0.00,,---,0.00,VWS V14.01,2014-09-22 04:35:00,
2014-09-22 00:40:00,52.0,47.3,30.07,NW,315,8.0,15.0,84,0.00,,---,0.00,VWS V14.01,2014-09-22 04:40:00,
2014-09-22 00:41:00,52.0,47.6,30.07,NW,315,6.0,15.0,85,0.00,,---,0.00,VWS V14.01,2014-09-22 04:41:00,
2014-09-22 00:46:00,51.0,46.7,30.07,NNW,337,6.0,11.0,85,0.00,,---,0.00,VWS V14.01,2014-09-22 04:46:00,
2014-09-22 00:51:00,51.0,46.7,30.07,North,360,10.0,10.0,85,0.00,,---,0.00,VWS V14.01,2014-09-22 04:51:00,
2014-09-22 00:56:00,51.0,47.0,30.07,North,360,5.0,10.0,86,0.00,,---,0.00,VWS V14.01,2014-09-22 04:56:00,
2014-09-22 01:02:00,51.0,47.0,30.07,NNW,337,8.0,10.0,86,0.00,,---,0.00,VWS V14.01,2014-09-22 05:02:00,
2014-09-22 01:07:00,51.0,47.0,30.07,North,360,5.0,10.0,86,0.00,,---,0.00,VWS V14.01,2014-09-22 05:07:00,
2014-09-22 01:12:00,51.0,47.3,30.08,NW,315,5.0,8.0,87,0.00,,---,0.00,VWS V14.01,2014-09-22 05:12:00,
2014-09-22 01:17:00,51.0,47.3,30.08,NW,315,5.0,7.0,87,0.00,,---,0.00,VWS V14.01,2014-09-22 05:17:00,
2014-09-22 01:22:00,50.0,46.3,30.08,NW,315,3.0,5.0,87,0.00,,---,0.00,VWS V14.01,2014-09-22 05:22:00,
2014-09-22 01:27:00,50.0,46.6,30.08,NW,315,4.0,6.0,88,0.00,,---,0.00,VWS V14.01,2014-09-22 05:27:00,
2014-09-22 01:32:00,50.0,46.9,30.08,WNW,292,5.0,7.0,89,0.00,,---,0.00,VWS V14.01,2014-09-22 05:32:00,
2014-09-22 01:37:00,49.0,46.2,30.08,NW,315,6.0,7.0,90,0.00,,---,0.00,VWS V14.01,2014-09-22 05:37:00,
2014-09-22 01:42:00,49.0,46.2,30.08,NW,315,3.0,6.0,90,0.00,,---,0.00,VWS V14.01,2014-09-22 05:42:00,
2014-09-22 01:47:00,49.0,46.2,30.08,WNW,292,5.0,7.0,90,0.00,,---,0.00,VWS V14.01,2014-09-22 05:47:00,
2014-09-22 01:52:00,49.0,46.2,30.09,NW,315,5.0,7.0,90,0.00,,---,0.00,VWS V14.01,2014-09-22 05:52:00,
2014-09-22 01:55:00,49.0,46.5,30.09,WNW,292,6.0,7.0,91,0.00,,---,0.00,VWS V14.01,2014-09-22 05:55:00,
2014-09-22 02:00:00,49.0,46.2,30.09,West,270,8.0,8.0,90,0.00,,---,0.00,VWS V14.01,2014-09-22 06:00:00,
2014-09-22 02:05:00,49.0,46.2,30.09,WNW,292,7.0,9.0,90,0.00,,---,0.00,VWS V14.01,2014-09-22 06:05:00,
2014-09-22 02:11:00,49.0,46.2,30.09,WNW,292,4.0,10.0,90,0.00,,---,0.00,VWS V14.01,2014-09-22 06:11:00,
2014-09-22 02:16:00,49.0,46.2,30.09,NW,315,6.0,8.0,90,0.00,,---,0.00,VWS V14.01,2014-09-22 06:16:00,
2014-09-22 02:21:00,49.0,46.2,30.09,NW,315,5.0,8.0,90,0.00,,---,0.00,VWS V14.01,2014-09-22 06:21:00,
2014-09-22 02:26:00,49.0,46.5,30.09,NW,315,7.0,10.0,91,0.00,,---,0.00,VWS V14.01,2014-09-22 06:26:00,
2014-09-22 02:31:00,49.0,46.5,30.09,NW,315,6.0,7.0,91,0.00,,---,0.00,VWS V14.01,2014-09-22 06:31:00,
2014-09-22 02:36:00,48.0,45.5,30.09,NW,315,4.0,9.0,91,0.00,,---,0.00,VWS V14.01,2014-09-22 06:36:00,
2014-09-22 02:41:00,48.0,45.5,30.09,NNW,337,4.0,7.0,91,0.00,,---,0.00,VWS V14.01,2014-09-22 06:41:00,
2014-09-22 02:46:00,48.0,45.5,30.09,NW,315,6.0,9.0,91,0.00,,---,0.00,VWS V14.01,2014-09-22 06:46:00,
2014-09-22 02:51:00,48.0,45.5,30.09,NW,315,7.0,8.0,91,0.00,,---,0.00,VWS V14.01,2014-09-22 06:51:00,
2014-09-22 02:56:00,48.0,45.5,30.09,NW,315,5.0,6.0,91,0.00,,---,0.00,VWS V14.01,2014-09-22 06:56:00,
2014-09-22 03:02:00,48.0,45.8,30.09,NNW,337,3.0,7.0,92,0.00,,---,0.00,VWS V14.01,2014-09-22 07:02:00,
2014-09-22 03:07:00,48.0,45.8,30.09,NW,315,5.0,6.0,92,0.00,,---,0.00,VWS V14.01,2014-09-22 07:07:00,
2014-09-22 03:12:00,47.0,44.5,30.09,NW,315,4.0,6.0,91,0.00,,---,0.00,VWS V14.01,2014-09-22 07:12:00,
2014-09-22 03:17:00,47.0,44.8,30.09,NW,315,5.0,6.0,92,0.00,,---,0.00,VWS V14.01,2014-09-22 07:17:00,
2014-09-22 03:22:00,47.0,44.8,30.10,NW,315,5.0,6.0,92,0.00,,---,0.00,VWS V14.01,2014-09-22 07:22:00,
2014-09-22 03:27:00,47.0,44.8,30.10,NW,315,5.0,8.0,92,0.00,,---,0.00,VWS V14.01,2014-09-22 07:27:00,
2014-09-22 03:32:00,47.0,44.8,30.10,NW,315,5.0,7.0,92,0.00,,---,0.00,VWS V14.01,2014-09-22 07:32:00,
2014-09-22 03:37:00,47.0,44.8,30.10,NW,315,5.0,8.0,92,0.00,,---,0.00,VWS V14.01,2014-09-22 07:37:00,
2014-09-22 03:42:00,47.0,44.8,30.10,NW,315,4.0,8.0,92,0.00,,---,0.00,VWS V14.01,2014-09-22 07:42:00,
2014-09-22 03:47:00,47.0,44.8,30.10,NW,315,6.0,7.0,92,0.00,,---,0.00,VWS V14.01,2014-09-22 07:47:00,
2014-09-22 03:52:00,47.0,44.8,30.11,NW,315,4.0,8.0,92,0.00,,---,0.00,VWS V14.01,2014-09-22 07:52:00,
2014-09-22 03:57:00,47.0,44.8,30.11,NW,315,5.0,8.0,92,0.00,,---,0.00,VWS V14.01,2014-09-22 07:57:00,
2014-09-22 04:02:00,47.0,44.8,30.10,NNW,337,6.0,9.0,92,0.00,,---,0.00,VWS V14.01,2014-09-22 08:02:00,
2014-09-22 04:07:00,47.0,44.5,30.10,NNW,337,4.0,10.0,91,0.00,,---,0.00,VWS V14.01,2014-09-22 08:07:00,
2014-09-22 04:12:00,47.0,44.5,30.11,NW,315,6.0,11.0,91,0.00,,---,0.00,VWS V14.01,2014-09-22 08:12:00,
2014-09-22 04:17:00,46.0,43.5,30.11,NNW,337,5.0,8.0,91,0.00,,---,0.00,VWS V14.01,2014-09-22 08:17:00,
2014-09-22 04:22:00,46.0,43.5,30.11,NW,315,5.0,9.0,91,0.00,,---,0.00,VWS V14.01,2014-09-22 08:22:00,
2014-09-22 04:27:00,46.0,43.5,30.11,WNW,292,7.0,10.0,91,0.00,,---,0.00,VWS V14.01,2014-09-22 08:27:00,
2014-09-22 04:32:00,46.0,43.5,30.12,NNW,337,4.0,7.0,91,0.00,,---,0.00,VWS V14.01,2014-09-22 08:32:00,
2014-09-22 04:33:00,46.0,43.5,30.12,NNW,337,2.0,6.0,91,0.00,,---,0.00,VWS V14.01,2014-09-22 08:33:00,
2014-09-22 04:38:00,46.0,43.5,30.12,NW,315,6.0,7.0,91,0.00,,---,0.00,VWS V14.01,2014-09-22 08:38:00,
2014-09-22 04:40:00,46.0,43.5,30.12,WNW,292,6.0,7.0,91,0.00,,---,0.00,VWS V14.01,2014-09-22 08:40:00,
2014-09-22 04:45:00,46.0,43.5,30.12,NNW,337,8.0,9.0,91,0.00,,---,0.00,VWS V14.01,2014-09-22 08:45:00,
2014-09-22 04:50:00,46.0,43.2,30.12,NNW,337,5.0,9.0,90,0.00,,---,0.00,VWS V14.01,2014-09-22 08:50:00,
2014-09-22 04:55:00,46.0,43.2,30.12,NW,315,7.0,9.0,90,0.00,,---,0.00,VWS V14.01,2014-09-22 08:55:00,
2014-09-22 05:01:00,45.0,42.2,30.12,NNW,337,5.0,8.0,90,0.00,,---,0.00,VWS V14.01,2014-09-22 09:01:00,
2014-09-22 05:06:00,45.0,42.2,30.12,NNW,337,7.0,9.0,90,0.00,,---,0.00,VWS V14.01,2014-09-22 09:06:00,
2014-09-22 05:11:00,45.0,42.2,30.13,NNW,337,3.0,7.0,90,0.00,,---,0.00,VWS V14.01,2014-09-22 09:11:00,
2014-09-22 05:16:00,45.0,42.2,30.13,NNW,337,5.0,9.0,90,0.00,,---,0.00,VWS V14.01,2014-09-22 09:16:00,
2014-09-22 05:21:00,45.0,42.2,30.13,WNW,292,7.0,10.0,90,0.00,,---,0.00,VWS V14.01,2014-09-22 09:21:00,
2014-09-22 05:26:00,45.0,42.2,30.13,NW,315,6.0,8.0,90,0.00,,---,0.00,VWS V14.01,2014-09-22 09:26:00,
2014-09-22 05:31:00,45.0,42.2,30.13,WNW,292,7.0,10.0,90,0.00,,---,0.00,VWS V14.01,2014-09-22 09:31:00,
2014-09-22 05:36:00,44.0,41.3,30.13,NW,315,6.0,9.0,90,0.00,,---,0.00,VWS V14.01,2014-09-22 09:36:00,
2014-09-22 05:41:00,44.0,41.3,30.13,NW,315,6.0,10.0,90,0.00,,---,0.00,VWS V14.01,2014-09-22 09:41:00,
2014-09-22 05:46:00,44.0,41.3,30.13,NNW,337,6.0,7.0,90,0.00,,---,0.00,VWS V14.01,2014-09-22 09:46:00,
2014-09-22 05:52:00,44.0,41.3,30.14,NNW,337,5.0,9.0,90,0.00,,---,0.00,VWS V14.01,2014-09-22 09:52:00,
2014-09-22 05:57:00,44.0,41.3,30.14,NNW,337,3.0,6.0,90,0.00,,---,0.00,VWS V14.01,2014-09-22 09:57:00,
2014-09-22 06:02:00,44.0,41.3,30.15,North,360,3.0,7.0,90,0.00,,---,0.00,VWS V14.01,2014-09-22 10:02:00,
2014-09-22 06:07:00,44.0,41.3,30.15,North,360,3.0,5.0,90,0.00,,---,0.00,VWS V14.01,2014-09-22 10:07:00,
2014-09-22 06:12:00,44.0,41.5,30.15,NNW,337,3.0,5.0,91,0.00,,---,0.00,VWS V14.01,2014-09-22 10:12:00,
2014-09-22 06:17:00,43.0,40.6,30.15,NW,315,5.0,6.0,91,0.00,,---,0.00,VWS V14.01,2014-09-22 10:17:00,
2014-09-22 06:22:00,43.0,40.6,30.15,NW,315,3.0,6.0,91,0.00,,---,0.00,VWS V14.01,2014-09-22 10:22:00,
2014-09-22 06:27:00,43.0,40.8,30.15,NW,315,5.0,6.0,92,0.00,,---,0.00,VWS V14.01,2014-09-22 10:27:00,
2014-09-22 06:32:00,43.0,40.8,30.16,NW,315,4.0,6.0,92,0.00,,---,0.00,VWS V14.01,2014-09-22 10:32:00,
2014-09-22 06:37:00,43.0,40.8,30.16,NW,315,3.0,6.0,92,0.00,,---,0.00,VWS V14.01,2014-09-22 10:37:00,
2014-09-22 06:42:00,43.0,41.1,30.17,NW,315,5.0,6.0,93,0.00,,---,0.00,VWS V14.01,2014-09-22 10:42:00,
2014-09-22 06:47:00,43.0,41.1,30.17,WNW,292,5.0,8.0,93,0.00,,---,0.00,VWS V14.01,2014-09-22 10:47:00,
2014-09-22 06:52:00,43.0,41.1,30.17,NW,315,3.0,6.0,93,0.00,,---,0.00,VWS V14.01,2014-09-22 10:52:00,
2014-09-22 06:57:00,43.0,40.8,30.17,NNW,337,5.0,6.0,92,0.00,,---,0.00,VWS V14.01,2014-09-22 10:57:00,
2014-09-22 07:02:00,43.0,40.8,30.18,NNW,337,4.0,8.0,92,0.00,,---,0.00,VWS V14.01,2014-09-22 11:02:00,
2014-09-22 07:07:00,43.0,40.6,30.18,NNW,337,4.0,8.0,91,0.00,,---,0.00,VWS V14.01,2014-09-22 11:07:00,
2014-09-22 07:12:00,43.0,40.6,30.19,WNW,292,4.0,7.0,91,0.00,,---,0.00,VWS V14.01,2014-09-22 11:12:00,
2014-09-22 07:17:00,44.0,41.5,30.19,NW,315,6.0,8.0,91,0.00,,---,0.00,VWS V14.01,2014-09-22 11:17:00,
2014-09-22 07:22:00,44.0,41.5,30.19,NNW,337,5.0,8.0,91,0.00,,---,0.00,VWS V14.01,2014-09-22 11:22:00,
2014-09-22 07:27:00,44.0,41.3,30.19,NNW,337,4.0,8.0,90,0.00,,---,0.00,VWS V14.01,2014-09-22 11:27:00,
2014-09-22 07:32:00,44.0,41.5,30.20,WNW,292,6.0,8.0,91,0.00,,---,0.00,VWS V14.01,2014-09-22 11:32:00,
2014-09-22 07:37:00,44.0,41.3,30.20,NW,315,6.0,6.0,90,0.00,,---,0.00,VWS V14.01,2014-09-22 11:37:00,
2014-09-22 07:42:00,44.0,41.3,30.20,NNW,337,5.0,10.0,90,0.00,,---,0.00,VWS V14.01,2014-09-22 11:42:00,
2014-09-22 07:47:00,44.0,41.3,30.20,NNW,337,6.0,9.0,90,0.00,,---,0.00,VWS V14.01,2014-09-22 11:47:00,
2014-09-22 07:52:00,44.0,41.3,30.20,NW,315,4.0,8.0,90,0.00,,---,0.00,VWS V14.01,2014-09-22 11:52:00,
2014-09-22 07:57:00,44.0,41.3,30.20,NW,315,6.0,7.0,90,0.00,,---,0.00,VWS V14.01,2014-09-22 11:57:00,
2014-09-22 08:02:00,44.0,41.3,30.20,NW,315,5.0,9.0,90,0.00,,---,0.00,VWS V14.01,2014-09-22 12:02:00,
2014-09-22 08:07:00,44.0,41.3,30.20,NW,315,4.0,7.0,90,0.00,,---,0.00,VWS V14.01,2014-09-22 12:07:00,
2014-09-22 08:12:00,44.0,41.3,30.21,NW,315,4.0,7.0,90,0.00,,---,0.00,VWS V14.01,2014-09-22 12:12:00,
2014-09-22 08:17:00,44.0,41.3,30.21,NW,315,6.0,6.0,90,0.00,,---,0.00,VWS V14.01,2014-09-22 12:17:00,
2014-09-22 08:22:00,44.0,41.0,30.21,NNW,337,6.0,9.0,89,0.00,,---,0.00,VWS V14.01,2014-09-22 12:22:00,
2014-09-22 08:27:00,45.0,41.4,30.21,NW,315,5.0,7.0,87,0.00,,---,0.00,VWS V14.01,2014-09-22 12:27:00,
2014-09-22 08:32:00,45.0,41.4,30.21,NW,315,6.0,9.0,87,0.00,,---,0.00,VWS V14.01,2014-09-22 12:32:00,
2014-09-22 08:37:00,45.0,41.4,30.21,NW,315,3.0,10.0,87,0.00,,---,0.00,VWS V14.01,2014-09-22 12:37:00,
2014-09-22 08:42:00,46.0,42.3,30.21,NNW,337,3.0,7.0,87,0.00,,---,0.00,VWS V14.01,2014-09-22 12:42:00,
2014-09-22 08:47:00,46.0,41.4,30.21,North,360,5.0,10.0,84,0.00,,---,0.00,VWS V14.01,2014-09-22 12:47:00,
2014-09-22 08:52:00,47.0,42.4,30.21,NNW,337,4.0,8.0,84,0.00,,---,0.00,VWS V14.01,2014-09-22 12:52:00,
2014-09-22 08:57:00,47.0,42.1,30.21,NNW,337,3.0,8.0,83,0.00,,---,0.00,VWS V14.01,2014-09-22 12:57:00,
2014-09-22 09:02:00,47.0,42.4,30.20,NNW,337,4.0,8.0,84,0.00,,---,0.00,VWS V14.01,2014-09-22 13:02:00,
2014-09-22 09:07:00,48.0,42.5,30.20,NNW,337,6.0,8.0,81,0.00,,---,0.00,VWS V14.01,2014-09-22 13:07:00,
2014-09-22 09:12:00,48.0,42.8,30.21,NNW,337,6.0,8.0,82,0.00,,---,0.00,VWS V14.01,2014-09-22 13:12:00,
2014-09-22 09:17:00,48.0,42.8,30.21,NNW,337,5.0,10.0,82,0.00,,---,0.00,VWS V14.01,2014-09-22 13:17:00,
2014-09-22 09:22:00,49.0,43.8,30.21,North,360,7.0,10.0,82,0.00,,---,0.00,VWS V14.01,2014-09-22 13:22:00,
2014-09-22 09:27:00,49.0,43.1,30.21,NNE,22,7.0,13.0,80,0.00,,---,0.00,VWS V14.01,2014-09-22 13:27:00,
2014-09-22 09:32:00,48.0,42.1,30.22,North,360,7.0,10.0,80,0.00,,---,0.00,VWS V14.01,2014-09-22 13:32:00,
2014-09-22 09:37:00,48.0,42.8,30.22,NNE,22,6.0,10.0,82,0.00,,---,0.00,VWS V14.01,2014-09-22 13:37:00,
2014-09-22 09:42:00,49.0,43.1,30.23,NNE,22,5.0,9.0,80,0.00,,---,0.00,VWS V14.01,2014-09-22 13:42:00,
2014-09-22 09:47:00,49.0,42.5,30.23,NNE,22,7.0,11.0,78,0.00,,---,0.00,VWS V14.01,2014-09-22 13:47:00,
2014-09-22 09:52:00,49.0,42.8,30.23,North,360,6.0,10.0,79,0.00,,---,0.00,VWS V14.01,2014-09-22 13:52:00,
2014-09-22 09:57:00,49.0,42.5,30.23,NNW,337,6.0,10.0,78,0.00,,---,0.00,VWS V14.01,2014-09-22 13:57:00,
2014-09-22 10:02:00,49.0,42.8,30.24,NNW,337,9.0,9.0,79,0.00,,---,0.00,VWS V14.01,2014-09-22 14:02:00,
2014-09-22 10:07:00,49.0,42.5,30.24,NNW,337,5.0,9.0,78,0.00,,---,0.00,VWS V14.01,2014-09-22 14:07:00,
2014-09-22 10:12:00,49.0,41.8,30.23,NNE,22,7.0,10.0,76,0.00,,---,0.00,VWS V14.01,2014-09-22 14:12:00,
2014-09-22 10:17:00,51.0,43.4,30.23,WSW,247,0.0,9.0,75,0.00,,---,0.00,VWS V14.01,2014-09-22 14:17:00,
2014-09-22 10:22:00,52.0,42.5,30.24,NNE,22,6.0,12.0,70,0.00,,---,0.00,VWS V14.01,2014-09-22 14:22:00,
2014-09-22 10:27:00,52.0,42.5,30.24,North,360,6.0,11.0,70,0.00,,---,0.00,VWS V14.01,2014-09-22 14:27:00,